Year,Month,Day,Hour,Minute,Value (Times are PST for insolation in W/m^2)
2017,04,12,00,00,0.00
2017,04,12,00,01,0.00
2017,04,12,00,02,0.00
2017,04,12,00,03,0.00
2017,04,12,00,04,0.00
2017,04,12,00,05,0.00
2017,04,12,00,06,0.00
2017,04,12,00,07,0.00
2017,04,12,00,08,0.00
2017,04,12,00,09,0.00
2017,04,12,00,10,0.00
2017,04,12,00,11,0.00
2017,04,12,00,12,0.00
2017,04,12,00,13,0.00
2017,04,12,00,14,0.00
2017,04,12,00,15,0.00
2017,04,12,00,16,0.00
2017,04,12,00,17,0.00
2017,04,12,00,18,0.00
2017,04,12,00,19,0.00
2017,04,12,00,20,0.00
2017,04,12,00,21,0.00
2017,04,12,00,22,0.00
2017,04,12,00,23,0.00
2017,04,12,00,24,0.00
2017,04,12,00,25,0.00
2017,04,12,00,26,0.00
2017,04,12,00,27,0.00
2017,04,12,00,28,0.00
2017,04,12,00,29,0.00
2017,04,12,00,30,0.00
2017,04,12,00,31,0.00
2017,04,12,00,32,0.00
2017,04,12,00,33,0.00
2017,04,12,00,34,0.00
2017,04,12,00,35,0.00
2017,04,12,00,36,0.00
2017,04,12,00,37,0.00
2017,04,12,00,38,0.00
2017,04,12,00,39,0.00
2017,04,12,00,40,0.00
2017,04,12,00,41,0.00
2017,04,12,00,42,0.00
2017,04,12,00,43,0.00
2017,04,12,00,44,0.00
2017,04,12,00,45,0.00
2017,04,12,00,46,0.00
2017,04,12,00,47,0.00
2017,04,12,00,48,0.00
2017,04,12,00,49,0.00
2017,04,12,00,50,0.00
2017,04,12,00,51,0.00
2017,04,12,00,52,0.00
2017,04,12,00,53,0.00
2017,04,12,00,54,0.00
2017,04,12,00,55,0.00
2017,04,12,00,56,0.00
2017,04,12,00,57,0.00
2017,04,12,00,58,0.00
2017,04,12,00,59,0.00
2017,04,12,01,00,0.00
2017,04,12,01,01,0.00
2017,04,12,01,02,0.00
2017,04,12,01,03,0.00
2017,04,12,01,04,0.00
2017,04,12,01,05,0.00
2017,04,12,01,06,0.00
2017,04,12,01,07,0.00
2017,04,12,01,08,0.00
2017,04,12,01,09,0.00
2017,04,12,01,10,0.00
2017,04,12,01,11,0.00
2017,04,12,01,12,0.00
2017,04,12,01,13,0.00
2017,04,12,01,14,0.00
2017,04,12,01,15,0.00
2017,04,12,01,16,0.00
2017,04,12,01,17,0.00
2017,04,12,01,18,0.00
2017,04,12,01,19,0.00
2017,04,12,01,20,0.00
2017,04,12,01,21,0.00
2017,04,12,01,22,0.00
2017,04,12,01,23,0.00
2017,04,12,01,24,0.00
2017,04,12,01,25,0.00
2017,04,12,01,26,0.00
2017,04,12,01,27,0.00
2017,04,12,01,28,0.00
2017,04,12,01,29,0.00
2017,04,12,01,30,0.00
2017,04,12,01,31,0.00
2017,04,12,01,32,0.00
2017,04,12,01,33,0.00
2017,04,12,01,34,0.00
2017,04,12,01,35,0.00
2017,04,12,01,36,0.00
2017,04,12,01,37,0.00
2017,04,12,01,38,0.00
2017,04,12,01,39,0.00
2017,04,12,01,40,0.00
2017,04,12,01,41,0.00
2017,04,12,01,42,0.00
2017,04,12,01,43,0.00
2017,04,12,01,44,0.00
2017,04,12,01,45,0.00
2017,04,12,01,46,0.00
2017,04,12,01,47,0.00
2017,04,12,01,48,0.00
2017,04,12,01,49,0.00
2017,04,12,01,50,0.00
2017,04,12,01,51,0.00
2017,04,12,01,52,0.00
2017,04,12,01,53,0.00
2017,04,12,01,54,0.00
2017,04,12,01,55,0.00
2017,04,12,01,56,0.00
2017,04,12,01,57,0.00
2017,04,12,01,58,0.00
2017,04,12,01,59,0.00
2017,04,12,02,00,0.00
2017,04,12,02,01,0.00
2017,04,12,02,02,0.00
2017,04,12,02,03,0.00
2017,04,12,02,04,0.00
2017,04,12,02,05,0.00
2017,04,12,02,06,0.00
2017,04,12,02,07,0.00
2017,04,12,02,08,0.00
2017,04,12,02,09,0.00
2017,04,12,02,10,0.00
2017,04,12,02,11,0.00
2017,04,12,02,12,0.00
2017,04,12,02,13,0.00
2017,04,12,02,14,0.00
2017,04,12,02,15,0.00
2017,04,12,02,16,0.00
2017,04,12,02,17,0.00
2017,04,12,02,18,0.00
2017,04,12,02,19,0.00
2017,04,12,02,20,0.00
2017,04,12,02,21,0.00
2017,04,12,02,22,0.00
2017,04,12,02,23,0.00
2017,04,12,02,24,0.00
2017,04,12,02,25,0.00
2017,04,12,02,26,0.00
2017,04,12,02,27,0.00
2017,04,12,02,28,0.00
2017,04,12,02,29,0.00
2017,04,12,02,30,0.00
2017,04,12,02,31,0.00
2017,04,12,02,32,0.00
2017,04,12,02,33,0.00
2017,04,12,02,34,0.00
2017,04,12,02,35,0.00
2017,04,12,02,36,0.00
2017,04,12,02,37,0.00
2017,04,12,02,38,0.00
2017,04,12,02,39,0.00
2017,04,12,02,40,0.00
2017,04,12,02,41,0.00
2017,04,12,02,42,0.00
2017,04,12,02,43,0.00
2017,04,12,02,44,0.00
2017,04,12,02,45,0.00
2017,04,12,02,46,0.00
2017,04,12,02,47,0.00
2017,04,12,02,48,0.00
2017,04,12,02,49,0.00
2017,04,12,02,50,0.00
2017,04,12,02,51,0.00
2017,04,12,02,52,0.00
2017,04,12,02,53,0.00
2017,04,12,02,54,0.00
2017,04,12,02,55,0.00
2017,04,12,02,56,0.00
2017,04,12,02,57,0.00
2017,04,12,02,58,0.00
2017,04,12,02,59,0.00
2017,04,12,03,00,0.00
2017,04,12,03,01,0.00
2017,04,12,03,02,0.00
2017,04,12,03,03,0.00
2017,04,12,03,04,0.00
2017,04,12,03,05,0.00
2017,04,12,03,06,0.00
2017,04,12,03,07,0.00
2017,04,12,03,08,0.00
2017,04,12,03,09,0.00
2017,04,12,03,10,0.00
2017,04,12,03,11,0.00
2017,04,12,03,12,0.00
2017,04,12,03,13,0.00
2017,04,12,03,14,0.00
2017,04,12,03,15,0.00
2017,04,12,03,16,0.00
2017,04,12,03,17,0.00
2017,04,12,03,18,0.00
2017,04,12,03,19,0.00
2017,04,12,03,20,0.00
2017,04,12,03,21,0.00
2017,04,12,03,22,0.00
2017,04,12,03,23,0.00
2017,04,12,03,24,0.00
2017,04,12,03,25,0.00
2017,04,12,03,26,0.00
2017,04,12,03,27,0.00
2017,04,12,03,28,0.00
2017,04,12,03,29,0.00
2017,04,12,03,30,0.00
2017,04,12,03,31,0.00
2017,04,12,03,32,0.00
2017,04,12,03,33,0.00
2017,04,12,03,34,0.00
2017,04,12,03,35,0.00
2017,04,12,03,36,0.00
2017,04,12,03,37,0.00
2017,04,12,03,38,0.00
2017,04,12,03,39,0.00
2017,04,12,03,40,0.00
2017,04,12,03,41,0.00
2017,04,12,03,42,0.00
2017,04,12,03,43,0.00
2017,04,12,03,44,0.00
2017,04,12,03,45,0.00
2017,04,12,03,46,0.00
2017,04,12,03,47,0.00
2017,04,12,03,48,0.00
2017,04,12,03,49,0.00
2017,04,12,03,50,0.00
2017,04,12,03,51,0.00
2017,04,12,03,52,0.00
2017,04,12,03,53,0.00
2017,04,12,03,54,0.00
2017,04,12,03,55,0.00
2017,04,12,03,56,0.00
2017,04,12,03,57,0.00
2017,04,12,03,58,0.00
2017,04,12,03,59,0.00
2017,04,12,04,00,0.00
2017,04,12,04,01,0.00
2017,04,12,04,02,0.00
2017,04,12,04,03,0.00
2017,04,12,04,04,0.00
2017,04,12,04,05,0.00
2017,04,12,04,06,0.00
2017,04,12,04,07,0.00
2017,04,12,04,08,0.00
2017,04,12,04,09,0.00
2017,04,12,04,10,0.00
2017,04,12,04,11,0.00
2017,04,12,04,12,0.00
2017,04,12,04,13,0.00
2017,04,12,04,14,0.00
2017,04,12,04,15,0.00
2017,04,12,04,16,0.00
2017,04,12,04,17,0.00
2017,04,12,04,18,0.00
2017,04,12,04,19,0.00
2017,04,12,04,20,0.00
2017,04,12,04,21,0.00
2017,04,12,04,22,0.00
2017,04,12,04,23,0.00
2017,04,12,04,24,0.00
2017,04,12,04,25,0.00
2017,04,12,04,26,0.00
2017,04,12,04,27,0.00
2017,04,12,04,28,0.00
2017,04,12,04,29,0.00
2017,04,12,04,30,0.00
2017,04,12,04,31,0.00
2017,04,12,04,32,0.00
2017,04,12,04,33,0.00
2017,04,12,04,34,0.00
2017,04,12,04,35,0.00
2017,04,12,04,36,0.00
2017,04,12,04,37,0.00
2017,04,12,04,38,0.00
2017,04,12,04,39,0.00
2017,04,12,04,40,0.00
2017,04,12,04,41,0.00
2017,04,12,04,42,0.00
2017,04,12,04,43,0.00
2017,04,12,04,44,0.00
2017,04,12,04,45,0.00
2017,04,12,04,46,0.00
2017,04,12,04,47,0.00
2017,04,12,04,48,0.00
2017,04,12,04,49,0.00
2017,04,12,04,50,0.00
2017,04,12,04,51,0.00
2017,04,12,04,52,0.00
2017,04,12,04,53,0.00
2017,04,12,04,54,0.00
2017,04,12,04,55,0.00
2017,04,12,04,56,0.00
2017,04,12,04,57,0.00
2017,04,12,04,58,0.00
2017,04,12,04,59,0.00
2017,04,12,05,00,0.00
2017,04,12,05,01,0.00
2017,04,12,05,02,0.00
2017,04,12,05,03,0.00
2017,04,12,05,04,0.00
2017,04,12,05,05,0.00
2017,04,12,05,06,0.00
2017,04,12,05,07,0.00
2017,04,12,05,08,0.00
2017,04,12,05,09,0.00
2017,04,12,05,10,0.00
2017,04,12,05,11,0.00
2017,04,12,05,12,0.00
2017,04,12,05,13,0.00
2017,04,12,05,14,0.00
2017,04,12,05,15,0.00
2017,04,12,05,16,0.00
2017,04,12,05,17,0.00
2017,04,12,05,18,0.00
2017,04,12,05,19,0.00
2017,04,12,05,20,0.00
2017,04,12,05,21,0.00
2017,04,12,05,22,0.00
2017,04,12,05,23,0.00
2017,04,12,05,24,0.00
2017,04,12,05,25,0.00
2017,04,12,05,26,0.00
2017,04,12,05,27,0.00
2017,04,12,05,28,0.00
2017,04,12,05,29,0.00
2017,04,12,05,30,0.00
2017,04,12,05,31,0.00
2017,04,12,05,32,0.00
2017,04,12,05,33,0.00
2017,04,12,05,34,0.00
2017,04,12,05,35,0.00
2017,04,12,05,36,0.00
2017,04,12,05,37,0.00
2017,04,12,05,38,0.00
2017,04,12,05,39,0.00
2017,04,12,05,40,0.00
2017,04,12,05,41,0.00
2017,04,12,05,42,0.00
2017,04,12,05,43,0.00
2017,04,12,05,44,0.00
2017,04,12,05,45,0.00
2017,04,12,05,46,0.00
2017,04,12,05,47,0.00
2017,04,12,05,48,0.00
2017,04,12,05,49,0.00
2017,04,12,05,50,0.00
2017,04,12,05,51,0.00
2017,04,12,05,52,0.00
2017,04,12,05,53,0.00
2017,04,12,05,54,0.00
2017,04,12,05,55,0.00
2017,04,12,05,56,0.00
2017,04,12,05,57,0.00
2017,04,12,05,58,0.00
2017,04,12,05,59,0.00
2017,04,12,06,00,0.00
2017,04,12,06,01,0.00
2017,04,12,06,02,0.00
2017,04,12,06,03,0.00
2017,04,12,06,04,0.00
2017,04,12,06,05,0.00
2017,04,12,06,06,0.00
2017,04,12,06,07,0.00
2017,04,12,06,08,0.00
2017,04,12,06,09,0.00
2017,04,12,06,10,0.00
2017,04,12,06,11,0.00
2017,04,12,06,12,0.00
2017,04,12,06,13,0.00
2017,04,12,06,14,0.00
2017,04,12,06,15,0.00
2017,04,12,06,16,0.00
2017,04,12,06,17,0.00
2017,04,12,06,18,0.00
2017,04,12,06,19,0.00
2017,04,12,06,20,0.00
2017,04,12,06,21,0.00
2017,04,12,06,22,0.00
2017,04,12,06,23,0.00
2017,04,12,06,24,0.00
2017,04,12,06,25,0.00
2017,04,12,06,26,0.00
2017,04,12,06,27,0.00
2017,04,12,06,28,0.00
2017,04,12,06,29,0.00
2017,04,12,06,30,0.00
2017,04,12,06,31,0.00
2017,04,12,06,32,0.00
2017,04,12,06,33,0.00
2017,04,12,06,34,0.00
2017,04,12,06,35,0.00
2017,04,12,06,36,0.00
2017,04,12,06,37,0.00
2017,04,12,06,38,0.00
2017,04,12,06,39,0.00
2017,04,12,06,40,0.00
2017,04,12,06,41,0.00
2017,04,12,06,42,0.00
2017,04,12,06,43,0.00
2017,04,12,06,44,0.00
2017,04,12,06,45,0.00
2017,04,12,06,46,0.00
2017,04,12,06,47,0.00
2017,04,12,06,48,0.00
2017,04,12,06,49,0.00
2017,04,12,06,50,0.00
2017,04,12,06,51,0.00
2017,04,12,06,52,0.00
2017,04,12,06,53,0.00
2017,04,12,06,54,0.00
2017,04,12,06,55,0.00
2017,04,12,06,56,0.00
2017,04,12,06,57,0.00
2017,04,12,06,58,0.00
2017,04,12,06,59,0.00
2017,04,12,07,00,0.00
2017,04,12,07,01,0.00
2017,04,12,07,02,0.00
2017,04,12,07,03,0.00
2017,04,12,07,04,0.00
2017,04,12,07,05,0.00
2017,04,12,07,06,0.00
2017,04,12,07,07,0.00
2017,04,12,07,08,0.00
2017,04,12,07,09,0.00
2017,04,12,07,10,0.00
2017,04,12,07,11,0.00
2017,04,12,07,12,0.00
2017,04,12,07,13,0.00
2017,04,12,07,14,0.00
2017,04,12,07,15,0.00
2017,04,12,07,16,0.00
2017,04,12,07,17,0.00
2017,04,12,07,18,0.00
2017,04,12,07,19,0.00
2017,04,12,07,20,0.00
2017,04,12,07,21,0.00
2017,04,12,07,22,0.00
2017,04,12,07,23,0.00
2017,04,12,07,24,0.00
2017,04,12,07,25,0.00
2017,04,12,07,26,0.00
2017,04,12,07,27,0.00
2017,04,12,07,28,0.00
2017,04,12,07,29,0.00
2017,04,12,07,30,4.20
2017,04,12,07,31,5.00
2017,04,12,07,32,5.00
2017,04,12,07,33,5.00
2017,04,12,07,34,5.90
2017,04,12,07,35,7.00
2017,04,12,07,36,7.00
2017,04,12,07,37,7.00
2017,04,12,07,38,7.20
2017,04,12,07,39,9.40
2017,04,12,07,40,11.40
2017,04,12,07,41,12.00
2017,04,12,07,42,11.40
2017,04,12,07,43,11.00
2017,04,12,07,44,11.00
2017,04,12,07,45,9.10
2017,04,12,07,46,9.00
2017,04,12,07,47,9.00
2017,04,12,07,48,9.00
2017,04,12,07,49,10.10
2017,04,12,07,50,9.60
2017,04,12,07,51,9.00
2017,04,12,07,52,9.00
2017,04,12,07,53,9.00
2017,04,12,07,54,9.00
2017,04,12,07,55,9.90
2017,04,12,07,56,11.00
2017,04,12,07,57,11.00
2017,04,12,07,58,11.00
2017,04,12,07,59,11.00
2017,04,12,08,00,11.00
2017,04,12,08,01,11.00
2017,04,12,08,02,11.00
2017,04,12,08,03,11.00
2017,04,12,08,04,11.70
2017,04,12,08,05,12.00
2017,04,12,08,06,12.00
2017,04,12,08,07,12.00
2017,04,12,08,08,12.00
2017,04,12,08,09,12.90
2017,04,12,08,10,14.00
2017,04,12,08,11,14.00
2017,04,12,08,12,14.00
2017,04,12,08,13,14.00
2017,04,12,08,14,14.00
2017,04,12,08,15,14.00
2017,04,12,08,16,14.90
2017,04,12,08,17,14.90
2017,04,12,08,18,15.40
2017,04,12,08,19,16.00
2017,04,12,08,20,16.00
2017,04,12,08,21,16.40
2017,04,12,08,22,18.30
2017,04,12,08,23,18.50
2017,04,12,08,24,18.00
2017,04,12,08,25,18.00
2017,04,12,08,26,18.00
2017,04,12,08,27,16.10
2017,04,12,08,28,16.40
2017,04,12,08,29,18.30
2017,04,12,08,30,19.00
2017,04,12,08,31,18.40
2017,04,12,08,32,18.00
2017,04,12,08,33,18.00
2017,04,12,08,34,18.10
2017,04,12,08,35,18.80
2017,04,12,08,36,18.00
2017,04,12,08,37,18.00
2017,04,12,08,38,18.00
2017,04,12,08,39,18.00
2017,04,12,08,40,18.00
2017,04,12,08,41,18.00
2017,04,12,08,42,18.00
2017,04,12,08,43,18.00
2017,04,12,08,44,18.00
2017,04,12,08,45,18.00
2017,04,12,08,46,18.00
2017,04,12,08,47,18.00
2017,04,12,08,48,18.00
2017,04,12,08,49,18.00
2017,04,12,08,50,18.00
2017,04,12,08,51,18.00
2017,04,12,08,52,18.00
2017,04,12,08,53,16.60
2017,04,12,08,54,17.70
2017,04,12,08,55,18.10
2017,04,12,08,56,19.00
2017,04,12,08,57,19.00
2017,04,12,08,58,19.00
2017,04,12,08,59,20.20
2017,04,12,09,00,21.00
2017,04,12,09,01,21.00
2017,04,12,09,02,21.00
2017,04,12,09,03,21.00
2017,04,12,09,04,21.00
2017,04,12,09,05,21.00
2017,04,12,09,06,21.00
2017,04,12,09,07,21.00
2017,04,12,09,08,21.00
2017,04,12,09,09,25.50
2017,04,12,09,10,26.40
2017,04,12,09,11,28.60
2017,04,12,09,12,30.00
2017,04,12,09,13,31.20
2017,04,12,09,14,34.10
2017,04,12,09,15,35.00
2017,04,12,09,16,38.80
2017,04,12,09,17,40.10
2017,04,12,09,18,45.00
2017,04,12,09,19,47.00
2017,04,12,09,20,48.20
2017,04,12,09,21,50.40
2017,04,12,09,22,51.00
2017,04,12,09,23,52.90
2017,04,12,09,24,52.60
2017,04,12,09,25,50.30
2017,04,12,09,26,48.00
2017,04,12,09,27,46.40
2017,04,12,09,28,44.60
2017,04,12,09,29,42.30
2017,04,12,09,30,40.30
2017,04,12,09,31,42.40
2017,04,12,09,32,44.90
2017,04,12,09,33,48.80
2017,04,12,09,34,52.70
2017,04,12,09,35,55.40
2017,04,12,09,36,59.40
2017,04,12,09,37,61.90
2017,04,12,09,38,62.00
2017,04,12,09,39,61.40
2017,04,12,09,40,60.00
2017,04,12,09,41,58.80
2017,04,12,09,42,56.60
2017,04,12,09,43,54.40
2017,04,12,09,44,53.10
2017,04,12,09,45,52.60
2017,04,12,09,46,51.00
2017,04,12,09,47,50.10
2017,04,12,09,48,49.00
2017,04,12,09,49,50.30
2017,04,12,09,50,51.00
2017,04,12,09,51,52.90
2017,04,12,09,52,53.20
2017,04,12,09,53,54.00
2017,04,12,09,54,54.90
2017,04,12,09,55,54.90
2017,04,12,09,56,54.00
2017,04,12,09,57,54.00
2017,04,12,09,58,54.10
2017,04,12,09,59,56.40
2017,04,12,10,00,58.70
2017,04,12,10,01,60.90
2017,04,12,10,02,62.00
2017,04,12,10,03,60.60
2017,04,12,10,04,60.00
2017,04,12,10,05,59.80
2017,04,12,10,06,58.00
2017,04,12,10,07,57.40
2017,04,12,10,08,55.10
2017,04,12,10,09,53.50
2017,04,12,10,10,53.00
2017,04,12,10,11,53.00
2017,04,12,10,12,53.00
2017,04,12,10,13,53.00
2017,04,12,10,14,53.30
2017,04,12,10,15,54.00
2017,04,12,10,16,54.00
2017,04,12,10,17,55.40
2017,04,12,10,18,56.00
2017,04,12,10,19,56.10
2017,04,12,10,20,58.00
2017,04,12,10,21,58.00
2017,04,12,10,22,58.00
2017,04,12,10,23,59.20
2017,04,12,10,24,61.40
2017,04,12,10,25,64.60
2017,04,12,10,26,69.50
2017,04,12,10,27,77.40
2017,04,12,10,28,85.80
2017,04,12,10,29,94.50
2017,04,12,10,30,101.30
2017,04,12,10,31,107.50
2017,04,12,10,32,110.70
2017,04,12,10,33,114.10
2017,04,12,10,34,116.40
2017,04,12,10,35,118.90
2017,04,12,10,36,121.00
2017,04,12,10,37,119.30
2017,04,12,10,38,115.20
2017,04,12,10,39,111.60
2017,04,12,10,40,108.70
2017,04,12,10,41,105.00
2017,04,12,10,42,105.00
2017,04,12,10,43,105.00
2017,04,12,10,44,104.40
2017,04,12,10,45,104.00
2017,04,12,10,46,104.00
2017,04,12,10,47,104.90
2017,04,12,10,48,105.80
2017,04,12,10,49,109.70
2017,04,12,10,50,112.30
2017,04,12,10,51,116.40
2017,04,12,10,52,120.10
2017,04,12,10,53,124.20
2017,04,12,10,54,127.10
2017,04,12,10,55,130.80
2017,04,12,10,56,134.30
2017,04,12,10,57,136.90
2017,04,12,10,58,140.20
2017,04,12,10,59,141.70
2017,04,12,11,00,145.40
2017,04,12,11,01,149.10
2017,04,12,11,02,152.00
2017,04,12,11,03,155.90
2017,04,12,11,04,160.40
2017,04,12,11,05,165.40
2017,04,12,11,06,170.40
2017,04,12,11,07,175.20
2017,04,12,11,08,181.10
2017,04,12,11,09,185.20
2017,04,12,11,10,186.60
2017,04,12,11,11,188.80
2017,04,12,11,12,190.00
2017,04,12,11,13,191.40
2017,04,12,11,14,192.00
2017,04,12,11,15,192.90
2017,04,12,11,16,193.00
2017,04,12,11,17,193.00
2017,04,12,11,18,193.90
2017,04,12,11,19,195.00
2017,04,12,11,20,196.40
2017,04,12,11,21,198.60
2017,04,12,11,22,202.10
2017,04,12,11,23,206.70
2017,04,12,11,24,210.40
2017,04,12,11,25,215.20
2017,04,12,11,26,221.00
2017,04,12,11,27,227.20
2017,04,12,11,28,234.90
2017,04,12,11,29,245.80
2017,04,12,11,30,253.00
2017,04,12,11,31,258.70
2017,04,12,11,32,276.60
2017,04,12,11,33,281.90
2017,04,12,11,34,279.60
2017,04,12,11,35,276.50
2017,04,12,11,36,271.50
2017,04,12,11,37,264.50
2017,04,12,11,38,259.40
2017,04,12,11,39,249.90
2017,04,12,11,40,244.30
2017,04,12,11,41,240.30
2017,04,12,11,42,237.40
2017,04,12,11,43,237.00
2017,04,12,11,44,237.80
2017,04,12,11,45,242.60
2017,04,12,11,46,250.10
2017,04,12,11,47,261.00
2017,04,12,11,48,264.30
2017,04,12,11,49,266.40
2017,04,12,11,50,271.00
2017,04,12,11,51,277.00
2017,04,12,11,52,285.30
2017,04,12,11,53,292.10
2017,04,12,11,54,298.90
2017,04,12,11,55,302.00
2017,04,12,11,56,359.00
2017,04,12,11,57,415.60
2017,04,12,11,58,442.00
2017,04,12,11,59,466.90
2017,04,12,12,00,489.00
2017,04,12,12,01,489.00
2017,04,12,12,02,502.30
2017,04,12,12,03,511.20
2017,04,12,12,04,505.80
2017,04,12,12,05,508.60
2017,04,12,12,06,554.10
2017,04,12,12,07,533.80
2017,04,12,12,08,525.40
2017,04,12,12,09,536.70
2017,04,12,12,10,524.80
2017,04,12,12,11,541.70
2017,04,12,12,12,588.80
2017,04,12,12,13,599.30
2017,04,12,12,14,592.00
2017,04,12,12,15,506.20
2017,04,12,12,16,433.20
2017,04,12,12,17,376.80
2017,04,12,12,18,327.30
2017,04,12,12,19,328.00
2017,04,12,12,20,333.20
2017,04,12,12,21,335.20
2017,04,12,12,22,335.10
2017,04,12,12,23,331.50
2017,04,12,12,24,334.60
2017,04,12,12,25,369.60
2017,04,12,12,26,422.90
2017,04,12,12,27,460.00
2017,04,12,12,28,484.60
2017,04,12,12,29,461.20
2017,04,12,12,30,425.50
2017,04,12,12,31,380.50
2017,04,12,12,32,331.30
2017,04,12,12,33,275.20
2017,04,12,12,34,234.90
2017,04,12,12,35,212.60
2017,04,12,12,36,206.00
2017,04,12,12,37,208.10
2017,04,12,12,38,224.20
2017,04,12,12,39,260.20
2017,04,12,12,40,262.00
2017,04,12,12,41,308.50
2017,04,12,12,42,433.60
2017,04,12,12,43,470.00
2017,04,12,12,44,495.00
2017,04,12,12,45,507.00
2017,04,12,12,46,514.40
2017,04,12,12,47,513.20
2017,04,12,12,48,556.00
2017,04,12,12,49,626.00
2017,04,12,12,50,515.00
2017,04,12,12,51,390.60
2017,04,12,12,52,339.00
2017,04,12,12,53,311.70
2017,04,12,12,54,308.20
2017,04,12,12,55,332.50
2017,04,12,12,56,350.90
2017,04,12,12,57,363.20
2017,04,12,12,58,382.80
2017,04,12,12,59,405.60
2017,04,12,13,00,397.30
2017,04,12,13,01,406.00
2017,04,12,13,02,409.90
2017,04,12,13,03,417.00
2017,04,12,13,04,429.20
2017,04,12,13,05,425.40
2017,04,12,13,06,400.80
2017,04,12,13,07,376.60
2017,04,12,13,08,369.70
2017,04,12,13,09,395.50
2017,04,12,13,10,423.00
2017,04,12,13,11,416.30
2017,04,12,13,12,419.90
2017,04,12,13,13,439.70
2017,04,12,13,14,465.90
2017,04,12,13,15,497.20
2017,04,12,13,16,516.90
2017,04,12,13,17,549.70
2017,04,12,13,18,624.90
2017,04,12,13,19,664.60
2017,04,12,13,20,664.00
2017,04,12,13,21,664.00
2017,04,12,13,22,609.60
2017,04,12,13,23,392.00
2017,04,12,13,24,392.00
2017,04,12,13,25,392.00
2017,04,12,13,26,392.00
2017,04,12,13,27,1045.60
2017,04,12,13,28,1209.00
2017,04,12,13,29,1144.40
2017,04,12,13,30,886.00
2017,04,12,13,31,707.30
2017,04,12,13,32,489.00
2017,04,12,13,33,489.00
2017,04,12,13,34,484.20
2017,04,12,13,35,420.30
2017,04,12,13,36,413.20
2017,04,12,13,37,427.70
2017,04,12,13,38,431.00
2017,04,12,13,39,418.60
2017,04,12,13,40,393.40
2017,04,12,13,41,386.70
2017,04,12,13,42,396.80
2017,04,12,13,43,414.60
2017,04,12,13,44,441.00
2017,04,12,13,45,457.70
2017,04,12,13,46,486.90
2017,04,12,13,47,468.00
2017,04,12,13,48,442.00
2017,04,12,13,49,438.10
2017,04,12,13,50,437.60
2017,04,12,13,51,432.70
2017,04,12,13,52,431.30
2017,04,12,13,53,458.80
2017,04,12,13,54,520.30
2017,04,12,13,55,517.50
2017,04,12,13,56,486.70
2017,04,12,13,57,469.00
2017,04,12,13,58,459.70
2017,04,12,13,59,451.90
2017,04,12,14,00,439.00
2017,04,12,14,01,427.70
2017,04,12,14,02,420.80
2017,04,12,14,03,411.80
2017,04,12,14,04,393.20
2017,04,12,14,05,376.20
2017,04,12,14,06,371.20
2017,04,12,14,07,364.80
2017,04,12,14,08,355.20
2017,04,12,14,09,348.80
2017,04,12,14,10,353.00
2017,04,12,14,11,359.20
2017,04,12,14,12,364.10
2017,04,12,14,13,379.30
2017,04,12,14,14,397.90
2017,04,12,14,15,406.00
2017,04,12,14,16,400.40
2017,04,12,14,17,435.10
2017,04,12,14,18,433.40
2017,04,12,14,19,410.00
2017,04,12,14,20,413.60
2017,04,12,14,21,402.70
2017,04,12,14,22,403.30
2017,04,12,14,23,403.00
2017,04,12,14,24,407.60
2017,04,12,14,25,440.00
2017,04,12,14,26,504.00
2017,04,12,14,27,572.80
2017,04,12,14,28,657.00
2017,04,12,14,29,504.40
2017,04,12,14,30,415.50
2017,04,12,14,31,396.70
2017,04,12,14,32,403.10
2017,04,12,14,33,441.00
2017,04,12,14,34,563.90
2017,04,12,14,35,733.00
2017,04,12,14,36,551.00
2017,04,12,14,37,553.00
2017,04,12,14,38,568.30
2017,04,12,14,39,465.70
2017,04,12,14,40,392.00
2017,04,12,14,41,392.00
2017,04,12,14,42,669.20
2017,04,12,14,43,896.00
2017,04,12,14,44,896.00
2017,04,12,14,45,896.00
2017,04,12,14,46,813.30
2017,04,12,14,47,447.30
2017,04,12,14,48,405.60
2017,04,12,14,49,387.40
2017,04,12,14,50,391.90
2017,04,12,14,51,398.00
2017,04,12,14,52,368.60
2017,04,12,14,53,367.00
2017,04,12,14,54,372.10
2017,04,12,14,55,392.50
2017,04,12,14,56,414.30
2017,04,12,14,57,422.00
2017,04,12,14,58,414.40
2017,04,12,14,59,371.30
2017,04,12,15,00,355.50
2017,04,12,15,01,383.10
2017,04,12,15,02,429.90
2017,04,12,15,03,433.40
2017,04,12,15,04,418.60
2017,04,12,15,05,415.00
2017,04,12,15,06,631.00
2017,04,12,15,07,601.20
2017,04,12,15,08,365.00
2017,04,12,15,09,367.00
2017,04,12,15,10,367.00
2017,04,12,15,11,595.20
2017,04,12,15,12,638.60
2017,04,12,15,13,615.20
2017,04,12,15,14,369.50
2017,04,12,15,15,365.60
2017,04,12,15,16,329.00
2017,04,12,15,17,332.80
2017,04,12,15,18,330.30
2017,04,12,15,19,343.80
2017,04,12,15,20,403.90
2017,04,12,15,21,412.60
2017,04,12,15,22,464.90
2017,04,12,15,23,430.40
2017,04,12,15,24,399.60
2017,04,12,15,25,388.00
2017,04,12,15,26,388.00
2017,04,12,15,27,385.10
2017,04,12,15,28,350.20
2017,04,12,15,29,299.30
2017,04,12,15,30,255.50
2017,04,12,15,31,257.70
2017,04,12,15,32,296.20
2017,04,12,15,33,298.20
2017,04,12,15,34,306.20
2017,04,12,15,35,285.00
2017,04,12,15,36,280.70
2017,04,12,15,37,274.70
2017,04,12,15,38,297.80
2017,04,12,15,39,360.00
2017,04,12,15,40,423.50
2017,04,12,15,41,370.60
2017,04,12,15,42,386.00
2017,04,12,15,43,410.00
2017,04,12,15,44,410.00
2017,04,12,15,45,462.80
2017,04,12,15,46,496.70
2017,04,12,15,47,576.20
2017,04,12,15,48,591.00
2017,04,12,15,49,610.60
2017,04,12,15,50,682.30
2017,04,12,15,51,676.30
2017,04,12,15,52,650.20
2017,04,12,15,53,570.60
2017,04,12,15,54,543.00
2017,04,12,15,55,405.70
2017,04,12,15,56,351.40
2017,04,12,15,57,305.70
2017,04,12,15,58,299.00
2017,04,12,15,59,281.40
2017,04,12,16,00,262.10
2017,04,12,16,01,280.20
2017,04,12,16,02,314.10
2017,04,12,16,03,351.00
2017,04,12,16,04,328.50
2017,04,12,16,05,334.00
2017,04,12,16,06,352.40
2017,04,12,16,07,334.10
2017,04,12,16,08,340.90
2017,04,12,16,09,336.60
2017,04,12,16,10,339.80
2017,04,12,16,11,346.50
2017,04,12,16,12,366.50
2017,04,12,16,13,384.10
2017,04,12,16,14,393.30
2017,04,12,16,15,388.80
2017,04,12,16,16,326.00
2017,04,12,16,17,328.80
2017,04,12,16,18,354.20
2017,04,12,16,19,342.40
2017,04,12,16,20,310.50
2017,04,12,16,21,282.10
2017,04,12,16,22,257.00
2017,04,12,16,23,236.10
2017,04,12,16,24,218.70
2017,04,12,16,25,205.50
2017,04,12,16,26,196.30
2017,04,12,16,27,192.40
2017,04,12,16,28,192.70
2017,04,12,16,29,196.20
2017,04,12,16,30,202.10
2017,04,12,16,31,209.50
2017,04,12,16,32,209.60
2017,04,12,16,33,203.70
2017,04,12,16,34,195.60
2017,04,12,16,35,184.30
2017,04,12,16,36,173.00
2017,04,12,16,37,160.10
2017,04,12,16,38,153.70
2017,04,12,16,39,148.70
2017,04,12,16,40,148.40
2017,04,12,16,41,152.60
2017,04,12,16,42,160.50
2017,04,12,16,43,171.80
2017,04,12,16,44,183.10
2017,04,12,16,45,188.40
2017,04,12,16,46,190.00
2017,04,12,16,47,190.00
2017,04,12,16,48,190.00
2017,04,12,16,49,187.20
2017,04,12,16,50,186.00
2017,04,12,16,51,186.00
2017,04,12,16,52,186.00
2017,04,12,16,53,185.00
2017,04,12,16,54,180.60
2017,04,12,16,55,175.80
2017,04,12,16,56,172.70
2017,04,12,16,57,169.50
2017,04,12,16,58,165.00
2017,04,12,16,59,162.80
2017,04,12,17,00,160.60
2017,04,12,17,01,157.10
2017,04,12,17,02,155.40
2017,04,12,17,03,153.60
2017,04,12,17,04,153.00
2017,04,12,17,05,154.90
2017,04,12,17,06,156.30
2017,04,12,17,07,159.30
2017,04,12,17,08,163.40
2017,04,12,17,09,167.30
2017,04,12,17,10,171.10
2017,04,12,17,11,176.80
2017,04,12,17,12,179.10
2017,04,12,17,13,181.00
2017,04,12,17,14,180.40
2017,04,12,17,15,177.60
2017,04,12,17,16,176.00
2017,04,12,17,17,176.00
2017,04,12,17,18,178.40
2017,04,12,17,19,181.10
2017,04,12,17,20,183.80
2017,04,12,17,21,186.60